Regional Weather Roundup
Issued by NWS

Home | Current Version | Previous Version | Graphics & Text | Print | Product List | Glossary On
Versions: 1 2 3 4 5 6 7 8 9 10 11 12 13 14 15 16 17 18 19 20 21 22 23 24 25 26 27 28 29 30 31 32 33 34 35 36 37 38 39 40 41 42 43 44 45 46 47 48 49 50
000
ASUS43 KBIS 161559
RWRND

NORTH DAKOTA REGIONAL WEATHER ROUNDUP
NATIONAL WEATHER SERVICE BISMARCK ND
1100 AM CDT WED APR 16 2014

NOTE: "FAIR" INDICATES FEW OR NO CLOUDS BELOW 12,000 FEET WITH NO
SIGNIFICANT WEATHER AND/OR OBSTRUCTIONS TO VISIBILITY.


NDZ001>003-009>011-017-161700-
NORTHWEST NORTH DAKOTA

CITY           SKY/WX    TMP DP  RH WIND       PRES   REMARKS
WILLISTON      CLOUDY    26  21  81 E12       30.10R WCI  16
MINOT          FLURRIES  24  18  77 NE10      30.13R WCI  14
$$

NDZ018>021-031>035-040>046-161700-
SOUTHWEST NORTH DAKOTA

CITY           SKY/WX    TMP DP  RH WIND       PRES   REMARKS
BISMARCK       CLOUDY    29  22  75 NE18      30.05R WCI  16
GARRISON         N/A     25  20  81 E14G20    30.08R WCI  13
HETTINGER ARPT CLOUDY    29  20  69 NE13      29.97R WCI  19
$$

NDZ004>008-012>016-024-026-027-054-161700-
NORTHEAST NORTH DAKOTA

CITY           SKY/WX    TMP DP  RH WIND       PRES   REMARKS
GRAND FORKS    PTSUNNY   36  11  35 NE16      30.08R
DEVILS LAKE    PTSUNNY   30  12  47 E20       30.09R WCI  18
$$

NDZ022-023-025-028>030-036>039-047>053-161700-
SOUTHEAST NORTH DAKOTA

CITY           SKY/WX    TMP DP  RH WIND       PRES   REMARKS
FARGO          CLOUDY    30  22  72 NE18      30.04R WCI  18
$$




USA.gov is the U.S. government's official web portal to all federal, state and local government web resources and services.